User: anonymous   Login
Location: Unspecified
(0.0000°N, 0.0000°E)
Time: 23:28:56
(UTC+02:00)
Language:

Delta 168 - Orbit

View from above orbital plane
View from above orbital plane
View from above satellite
View from above satellite

Ground track
Ground track

The orbit data is extracted from the following two-line orbital elements,

1 14051U 83041B   16176.89455436 +.00000883 +00000-0 +59862-4 0  9995
2 14051 025.3414 327.6447 1102386 285.5707 062.5935 13.07286134531633
Epoch (UTC): 24 June 2016 21:28:09
Eccentricity: 0.1102386
inclination: 25.3414°
perigee height: 394 km
apogee height: 2073 km
right ascension of ascending node: 327.6447°
argument of perigee: 285.5707°
revolutions per day: 13.07286134
mean anomaly at epoch: 62.5935°
orbit number at epoch: 53163

The dashed part of the orbit path shows where the satellite is in the earth's shadow,  

DLR